Location: Brompton
(51.4000°N, 0.5333°E)
Time: 18:00:13
(UTC+00:00)

ISS - Visible Passes

Search period start: 24 January 2022 00:00
Search period end: 03 February 2022 00:00
Orbit: 413 x 422 km, 51.6° (Epoch: 24 January)

Date Brightness Start Highest point End Pass type
(mag) Time Alt. Az. Time Alt. Az. Time Alt. Az.
24 Jan -2.9 17:14:28 10° SW 17:17:36 39° SSE 17:20:46 10° E visible
24 Jan -3.5 18:50:53 10° W 18:53:48 66° W 18:53:48 66° W visible
25 Jan -3.8 18:02:52 10° WSW 18:06:12 81° S 18:07:45 29° E visible
25 Jan -0.9 19:39:39 10° W 19:40:41 18° W 19:40:41 18° W visible
26 Jan -3.6 17:14:53 10° WSW 17:18:12 67° SSE 17:21:31 10° E visible
26 Jan -3.6 18:51:37 10° W 18:54:37 69° WNW 18:54:37 69° WNW visible
27 Jan -3.8 18:03:33 10° W 18:06:55 84° N 18:08:33 28° E visible
27 Jan -1.0 19:40:21 10° W 19:41:28 19° W 19:41:28 19° W visible
28 Jan -3.8 17:15:29 10° W 17:18:51 89° NNE 17:22:11 10° E visible
28 Jan -3.7 18:52:17 10° W 18:55:25 74° WSW 18:55:25 74° WSW visible
29 Jan -3.8 18:04:13 10° W 18:07:33 89° NW 18:09:23 25° E visible
29 Jan -1.1 19:41:03 10° W 19:42:19 20° W 19:42:19 20° W visible
30 Jan -3.3 18:52:55 10° W 18:56:11 51° SSW 18:56:21 50° S visible
31 Jan -3.5 18:04:48 10° W 18:08:08 67° SSW 18:10:26 18° ESE visible
31 Jan -1.0 19:41:58 10° W 19:43:23 17° WSW 19:43:23 17° WSW visible
01 Feb -3.7 17:16:42 10° W 17:20:03 81° SSW 17:23:23 10° ESE visible
01 Feb -2.1 18:53:38 10° W 18:56:33 28° SSW 18:57:34 23° S visible
02 Feb -2.5 18:05:24 10° W 18:08:33 39° SSW 18:11:41 10° SE visible
